SCP
0 0 0 -0 0 0 0 0 -0 -0 -0 0 0 -0 0 0 0 0 0 -0 -0 -0 -0 -0 -0 -0 0 0 -0 -0 -0 -0 -0 -0 -0 -0 -0 -0 0 0 -0 -0 -0
0 0 0 -0 -0 0 0 -0 -0 0 0 0 0 0 0 0 0 0 0 -0 -0 0 0 -0 0 -0 0 -0 0 -0 0 -0 -0 -0 -0 -0 -0 0 0 -0 -0 -0 -0
0 -0 -0 -0 -0 -0 -0 -0 -0 0 0 0 0 0 0 0 0 0 0 0 -0 0 0 0 -0 -0 -0 -0 -0 0 -0 0 -0 0 0 -0 -0 -0 0 -0 -0 -0 -0
0 0 -0 0 -0 -0 -0 -0 0 0 0 0 0 0 0 0 0 -0 -0 -0 0 0 0 0 -0 -0 -0 -0 -0 0 0 -0 0 0 0 0 -0 0 -0 -0 -0 -0 -0
0 0 0 0 -0 -0 -0 0 0 0 0 0 0 0 0 -0 0 -0 -0 -0 -0 0 0 -0 -0 -0 -0 -0 -0 -0 0 0 0 0 0 0 0 -0 0 -0 -0 0 0
-0 -0 -0 0 -0 -0 -0 0 -0 0 0 0 0 0 0 0 -0 0 0 0 -0 0 -0 0 0 -0 -0 -0 -0 -0 0 0 -0 0 0 0 0 -0 -0 -0 0 0 0
0 0 -0 -0 -0 -0 0 0 0 0 -0 0 0 0 0 0 -0 -0 -0 -0 -0 -0 0 -0 0 0 0 0 0 0 0 0 0 0 0 0 -0 -0 0 0 -0 0 0
0 -0 -0 0 -0 0 -0 -0 -0 0 0 -0 0 0 0 0 0 0 0 0 -0 -0 -0 0 -0 0 0 0 0 0 0 0 0 0 0 0 0 0 0 0 0 -0 0
0 0 -0 -0 0 0 0 0 0 0 0 0 0 0 0 0 0 0 0 0 0 0 -0 -0 -0 0 0 0 0 0 0 0 0 0 0 0 0 0 0 0 0 0 0
0 0 -0 -0 -0 0 0 0 -0 0 0 -0 0 0 0 0 0 0 -0 0 0 -0 -0 -0 -0 0 0 0 0 0 0 0 0 0 0 0 0 0 0 0 0 0 0
-0 -0 -0 -0 -0 0 0 0 0 0 0 -0 -0 0 -0 -0 0 -0 0 0 -0 -0 -0 -0 -0 -0 0 0 0 0 0 0 0 0 0 -0 0 0 0 0 0 -0 0
-0 -0 -0 -0 -0 -0 0 -0 -0 0 0 0 0 -0 -0 0 0 0 0 0 0 0 -0 -0 -0 0 -0 0 0 0 0 0 0 0 0 0 -0 0 0 0 0 -0 -0
-0 -0 -0 -0 -0 -0 -0 -0 -0 -0 -0 -0 -0 -0 0 0 0 0 0 0 0 0 0 -0 -0 -0 0 0 0 0 0 0 0 0 0 0 -0 0 0 0 0 0 -0
-0 -0 -0 -0 -0 -0 -0 -0 -0 -0 -0 -0 -0 -0 -0 0 0 0 0 0 0 -0 0 0 0 0 0 0 0 0 0 0 0 0 0 -0 -0 -0 -0 -0 0 0 -0
0 0 0 0 0 -0 0 -0 0 0 0 -0 -0 -0 0 0 0 0 0 0 0 0 0 0 0 -0 -0 -0 0 0 0 0 0 0 0 0 0 -0 0 0 0 -0 0
-0 -0 -0 -0 0 0 0 -0 0 0 0 0 -0 -0 -0 0 0 0 0 0 0 -0 0 0 0 0 -0 -0 -0 -0 0 0 0 0 0 0 0 0 0 0 0 0 0
-0 -0 -0 -0 -0 -0 -0 0 0 -0 -0 0 0 0 -0 -0 0 0 -0 -0 -0 0 0 0 0 0 0 -0 0 0 0 0 0 0 0 0 0 0 0 0 0 0 0
-0 -0 -0 -0 -0 -0 -0 -0 -0 -0 -0 -0 -0 -0 0 -0 -0 0 0 0 0 0 -0 0 0 0 0 0 0 0 0 0 0 0 0 0 0 0 0 0 0 0 0
-0 -0 -0 -0 -0 -0 -0 -0 -0 0 0 0 0 0 -0 -0 -0 0 -0 -0 -0 -0 0 0 0 0 0 0 0 0 0 0 0 0 0 0 0 0 0 0 0 0 0
-0 -0 -0 -0 -0 -0 -0 -0 -0 -0 0 0 0 0 0 0 0 0 0 0 -0 -0 -0 0 0 0 0 1 0 0 0 0 0 0 0 0 0 0 0 0 1 0 0
-0 -0 -1 -1 -0 -0 -0 -0 -0 -0 0 0 -0 0 0 0 0 0 0 0 0 0 0 -0 0 0 0 0 1 0 -0 0 0 0 0 0 0 0 0 0 0 0 0
-0 -0 -0 -0 -1 -1 -0 -0 0 0 0 0 0 0 0 0 0 0 0 0 0 0 0 0 0 0 0 0 0 1 -0 0 0 0 0 0 0 0 0 0 0 0 0
0 -0 -0 -0 -0 -0 -0 0 0 0 0 0 0 0 0 0 0 0 0 0 0 0 0 0 0 0 0 0 1 1 1 0 0 0 0 0 0 0 0 0 0 0 0
-0 0 -0 -0 -0 -0 0 0 0 0 0 0 1 1 1 0 0 0 0 0 1 1 0 0 0 1 1 0 1 1 1 0 0 0 0 0 0 1 0 0 0 0 0
-0 -0 -0 -0 -0 -0 0 0 0 1 1 1 1 1 1 1 1 0 1 1 1 1 1 0 1 1 2 1 1 1 2 1 1 1 0 0 1 1 0 0 0 0 0
0 -0 -0 -0 0 0 0 1 1 1 1 1 1 1 1 1 1 1 1 1 1 1 1 1 1 1 1 2 2 2 1 1 1 1 0 0 0 0 1 0 0 0 0
Wind_Speed_500mb
37 33 32 30 38 40 43 46 48 48 46 46 50 50 51 47 42 30 27 26 25 26 24 22 23 23 27 24 23 20 22 26 26 28 28 28 25 27 32 38 30 23 22
40 37 37 34 41 40 43 44 44 45 45 44 46 45 47 39 28 24 23 24 26 25 24 22 22 20 19 19 20 21 24 27 27 28 27 28 22 28 28 33 26 22 23
42 38 33 34 40 42 44 42 46 45 42 42 43 43 41 32 23 23 23 22 21 22 19 16 16 16 18 22 24 25 28 27 26 29 41 19 19 24 23 22 19 18 18
42 32 32 35 40 39 41 41 53 48 42 42 42 39 32 25 26 27 23 22 21 20 16 16 17 19 24 25 26 25 26 25 29 35 22 20 16 21 19 19 22 21 18
40 33 34 37 39 36 39 44 51 44 43 41 37 31 28 27 26 24 19 18 18 17 14 15 18 21 23 22 23 23 22 24 26 23 17 17 15 14 14 15 17 19 23
35 34 37 34 35 36 40 43 46 42 42 37 31 29 29 28 25 22 19 17 18 18 15 17 21 23 26 22 23 23 20 20 26 11 13 22 14 14 14 13 14 14 16
32 32 34 33 33 34 37 41 45 40 39 33 30 30 28 24 20 18 15 15 15 13 15 17 21 22 18 18 18 17 16 16 14 9 10 14 8 14 13 11 10 11 11
31 32 29 31 30 32 36 36 34 37 37 31 26 23 20 18 17 14 12 12 11 12 14 14 17 15 13 10 11 10 11 12 10 5 6 8 8 12 11 8 6 6 7
31 30 26 28 27 28 32 36 35 36 42 34 23 20 17 14 12 11 11 12 10 8 8 7 8 7 6 7 6 6 8 9 9 3 7 6 6 6 9 6 4 2 2
27 28 31 25 24 25 27 29 31 31 38 35 25 19 14 7 5 8 8 7 7 6 4 1 5 6 5 3 3 3 3 10 7 0 6 5 5 4 4 2 2 2 3
25 23 25 25 24 27 25 24 27 28 34 32 27 21 11 4 3 7 10 2 3 5 4 4 7 11 10 10 7 5 1 2 5 2 1 11 10 7 4 3 2 4 4
29 26 25 24 25 25 23 25 20 24 22 22 19 15 10 11 9 8 6 5 5 7 11 14 13 13 14 10 12 12 5 11 4 6 5 16 13 9 7 6 5 5 9
30 27 26 26 27 25 24 23 21 22 22 23 24 21 15 14 11 6 9 5 8 15 6 16 17 9 11 14 17 14 16 12 10 11 12 18 13 10 8 7 8 7 8
30 27 27 26 26 25 22 22 21 21 23 24 25 30 27 19 19 19 12 12 13 9 17 15 14 22 14 18 19 21 19 17 19 15 13 21 15 11 10 7 10 10 9
30 28 27 27 26 25 24 19 20 20 18 17 21 24 24 21 21 18 18 16 16 17 17 16 17 18 23 17 20 24 24 24 24 25 15 28 19 18 12 12 12 12 13
29 28 26 25 25 24 23 24 20 19 20 21 22 23 26 23 23 21 22 23 20 16 21 15 19 19 19 17 21 24 29 29 28 26 20 20 22 21 19 16 14 14 15
27 26 26 26 26 26 26 22 21 20 20 21 23 27 28 28 29 29 26 26 28 23 22 22 20 25 25 23 25 27 28 32 34 29 27 20 23 27 26 19 15 15 16
28 28 25 23 24 24 27 24 22 23 24 24 26 27 31 31 32 31 29 29 27 31 26 26 23 21 23 25 27 28 30 33 34 35 33 31 25 25 30 30 23 23 20
29 27 26 21 20 20 24 25 27 28 28 28 29 30 33 34 34 34 32 33 34 31 31 29 29 28 33 28 31 32 33 36 37 37 39 39 36 37 33 35 38 32 29
27 26 24 24 22 21 22 24 26 27 28 30 31 33 36 36 37 40 36 38 39 36 36 36 40 33 32 37 32 32 31 35 37 40 44 45 45 44 41 37 38 37 38
29 28 27 26 26 26 25 24 24 24 26 29 31 34 37 39 39 40 39 40 44 42 44 39 41 45 39 36 40 35 38 40 42 43 45 47 48 49 46 44 45 42 40
29 26 24 23 23 25 24 25 26 22 25 30 32 39 42 43 45 48 46 46 49 49 53 51 49 48 45 38 42 36 38 37 41 41 40 46 48 46 47 48 47 47 46
29 27 22 20 20 22 23 25 28 30 33 31 32 33 37 39 43 47 52 53 53 56 61 61 58 53 46 45 47 39 25 36 30 27 34 34 40 44 45 46 48 49 50
28 25 23 21 20 21 24 24 30 28 30 29 35 33 39 41 45 44 46 51 58 57 62 61 59 62 57 55 51 51 53 49 44 42 37 32 27 32 36 42 42 43 46
27 25 24 25 21 18 17 18 21 21 23 27 31 37 41 45 44 42 45 49 53 54 59 60 61 66 66 61 58 54 58 49 50 52 52 48 41 34 29 29 29 36 41
27 25 23 23 19 15 14 16 21 25 32 35 40 48 41 40 42 44 48 46 46 49 52 53 60 65 67 73 70 66 62 57 49 47 51 50 53 50 44 39 38 39 38
Wind_Direction_500mb
143 131 128 126 139 133 133 131 132 133 130 129 130 130 130 128 125 114 110 109 106 104 111 109 102 106 110 107 104 102 95 96 100 101 105 104 103 104 101 85 85 103 101
139 134 131 134 146 141 139 137 134 134 130 130 132 130 131 131 124 114 107 107 105 105 108 108 108 114 105 103 102 101 104 101 101 99 101 97 101 107 110 118 129 99 97
140 140 141 141 144 148 144 139 134 135 132 127 130 132 132 131 128 118 111 109 107 109 117 108 101 108 106 104 104 104 106 99 95 93 88 95 106 103 112 112 102 100 107
135 143 152 146 143 145 148 142 138 142 135 129 130 132 132 125 114 113 109 106 102 101 99 103 107 111 111 108 105 105 108 108 94 84 89 102 104 101 102 105 100 91 98
132 143 156 146 147 146 143 143 142 141 140 137 134 133 132 126 121 116 108 99 95 91 95 96 109 117 114 108 102 104 109 105 94 81 108 110 113 109 110 110 91 88 97
136 139 145 145 145 151 147 149 147 146 144 139 135 130 129 121 119 109 98 92 93 85 85 104 110 115 110 99 96 99 105 104 79 92 90 100 126 110 104 101 109 104 99
129 136 144 149 150 153 153 152 154 155 154 141 133 129 125 115 102 92 79 74 89 83 84 109 119 118 108 97 88 90 92 101 99 92 103 110 129 107 105 105 107 106 99
129 132 142 151 157 159 160 157 160 162 158 151 141 135 128 118 104 86 82 85 88 82 88 104 127 130 115 96 95 94 76 84 68 109 101 87 109 108 102 92 92 110 115
135 135 135 145 153 161 163 162 161 168 172 169 158 148 140 128 106 68 72 80 79 74 79 112 140 146 127 113 99 107 76 71 100 118 88 57 31 97 101 90 90 85 128
134 140 144 145 149 152 158 168 169 171 179 182 180 170 158 141 102 51 57 46 55 42 40 67 211 216 212 226 187 133 33 51 81 92 64 249 348 20 39 68 47 31 314
143 142 142 146 147 148 149 166 174 180 181 186 186 186 175 132 16 22 296 202 352 343 346 298 263 247 239 256 256 283 85 321 219 207 65 305 351 348 344 325 330 312 310
153 154 156 150 154 149 153 161 162 178 178 178 188 210 180 221 207 194 253 258 309 302 333 322 283 276 267 260 278 283 312 262 257 262 254 304 329 324 325 309 296 291 291
159 159 164 164 161 160 172 162 169 183 191 199 202 211 219 231 245 249 251 313 299 313 296 317 310 300 270 264 248 240 248 258 252 276 281 298 308 305 304 306 296 285 281
164 168 169 171 172 169 180 177 187 186 197 204 217 231 224 239 251 238 246 252 287 282 276 279 277 279 253 272 255 249 252 249 256 265 288 299 285 285 289 302 309 304 292
175 177 178 182 186 185 184 195 194 200 211 220 221 233 225 233 241 244 245 248 250 273 260 273 270 271 273 268 263 253 251 251 261 273 288 298 270 271 283 305 309 297 302
185 189 191 193 197 197 200 201 207 215 224 222 230 235 244 234 246 244 254 255 251 254 257 257 267 262 266 261 261 254 251 252 257 264 277 281 279 261 269 291 307 287 284
193 193 198 205 206 208 209 219 221 228 231 235 240 243 242 244 249 244 253 257 262 243 254 262 274 280 268 266 258 249 252 256 253 260 264 261 278 275 261 272 290 295 289
193 198 200 209 218 224 225 223 227 237 237 243 245 248 255 249 251 252 256 256 257 262 247 261 250 259 267 266 258 252 252 253 252 252 256 257 254 256 272 263 271 278 280
201 205 211 227 232 233 232 225 234 239 244 242 246 247 251 250 249 252 255 260 260 254 258 250 250 246 245 259 263 259 252 252 253 254 255 253 251 251 254 267 273 262 266
208 220 232 243 242 240 225 233 234 242 248 250 250 250 249 252 254 261 258 256 258 258 254 255 248 254 255 257 255 260 258 255 256 254 253 252 254 254 253 252 257 267 260
214 223 236 242 239 235 227 229 239 243 253 258 257 263 266 264 256 256 259 254 253 247 252 248 255 259 257 254 255 261 262 261 260 257 255 255 253 251 253 250 251 254 258
218 227 241 246 246 253 238 245 243 254 263 262 262 271 277 275 274 265 259 258 256 257 258 259 255 256 256 248 248 254 262 267 260 260 259 253 252 251 250 252 251 250 250
218 226 232 244 247 248 240 252 262 272 276 276 276 273 278 273 278 274 268 271 271 266 262 260 259 254 251 247 248 242 261 257 267 259 256 259 250 249 251 250 248 251 252
215 216 222 228 240 253 260 256 257 260 269 274 274 278 278 276 284 285 285 280 277 271 266 264 260 254 253 250 251 247 249 247 259 266 264 255 251 248 246 243 245 248 249
204 209 214 226 246 247 256 256 261 272 284 289 293 293 303 300 291 282 279 280 281 280 276 272 265 263 257 251 249 248 245 248 250 249 258 254 251 255 255 257 247 245 249
191 198 205 229 222 237 253 265 273 284 296 299 298 297 299 294 292 290 287 281 279 275 275 273 272 272 267 263 251 246 244 244 243 246 252 255 256 254 252 253 252 254 248
Wind_Speed_850mb
37 33 32 30 38 40 43 46 48 48 46 46 50 50 51 47 42 30 27 26 25 26 24 22 23 23 27 24 23 20 22 26 26 28 28 28 25 27 32 38 30 23 22
40 37 37 34 41 40 43 44 44 45 45 44 46 45 47 39 28 24 23 24 26 25 24 22 22 20 19 19 20 21 24 27 27 28 27 28 22 28 28 33 26 22 23
42 38 33 34 40 42 44 42 46 45 42 42 43 43 41 32 23 23 23 22 21 22 19 16 16 16 18 22 24 25 28 27 26 29 41 19 19 24 23 22 19 18 18
42 32 32 35 40 39 41 41 53 48 42 42 42 39 32 25 26 27 23 22 21 20 16 16 17 19 24 25 26 25 26 25 29 35 22 20 16 21 19 19 22 21 18
40 33 34 37 39 36 39 44 51 44 43 41 37 31 28 27 26 24 19 18 18 17 14 15 18 21 23 22 23 23 22 24 26 23 17 17 15 14 14 15 17 19 23
35 34 37 34 35 36 40 43 46 42 42 37 31 29 29 28 25 22 19 17 18 18 15 17 21 23 26 22 23 23 20 20 26 11 13 22 14 14 14 13 14 14 16
32 32 34 33 33 34 37 41 45 40 39 33 30 30 28 24 20 18 15 15 15 13 15 17 21 22 18 18 18 17 16 16 14 9 10 14 8 14 13 11 10 11 11
31 32 29 31 30 32 36 36 34 37 37 31 26 23 20 18 17 14 12 12 11 12 14 14 17 15 13 10 11 10 11 12 10 5 6 8 8 12 11 8 6 6 7
31 30 26 28 27 28 32 36 35 36 42 34 23 20 17 14 12 11 11 12 10 8 8 7 8 7 6 7 6 6 8 9 9 3 7 6 6 6 9 6 4 2 2
27 28 31 25 24 25 27 29 31 31 38 35 25 19 14 7 5 8 8 7 7 6 4 1 5 6 5 3 3 3 3 10 7 0 6 5 5 4 4 2 2 2 3
25 23 25 25 24 27 25 24 27 28 34 32 27 21 11 4 3 7 10 2 3 5 4 4 7 11 10 10 7 5 1 2 5 2 1 11 10 7 4 3 2 4 4
29 26 25 24 25 25 23 25 20 24 22 22 19 15 10 11 9 8 6 5 5 7 11 14 13 13 14 10 12 12 5 11 4 6 5 16 13 9 7 6 5 5 9
30 27 26 26 27 25 24 23 21 22 22 23 24 21 15 14 11 6 9 5 8 15 6 16 17 9 11 14 17 14 16 12 10 11 12 18 13 10 8 7 8 7 8
30 27 27 26 26 25 22 22 21 21 23 24 25 30 27 19 19 19 12 12 13 9 17 15 14 22 14 18 19 21 19 17 19 15 13 21 15 11 10 7 10 10 9
30 28 27 27 26 25 24 19 20 20 18 17 21 24 24 21 21 18 18 16 16 17 17 16 17 18 23 17 20 24 24 24 24 25 15 28 19 18 12 12 12 12 13
29 28 26 25 25 24 23 24 20 19 20 21 22 23 26 23 23 21 22 23 20 16 21 15 19 19 19 17 21 24 29 29 28 26 20 20 22 21 19 16 14 14 15
27 26 26 26 26 26 26 22 21 20 20 21 23 27 28 28 29 29 26 26 28 23 22 22 20 25 25 23 25 27 28 32 34 29 27 20 23 27 26 19 15 15 16
28 28 25 23 24 24 27 24 22 23 24 24 26 27 31 31 32 31 29 29 27 31 26 26 23 21 23 25 27 28 30 33 34 35 33 31 25 25 30 30 23 23 20
29 27 26 21 20 20 24 25 27 28 28 28 29 30 33 34 34 34 32 33 34 31 31 29 29 28 33 28 31 32 33 36 37 37 39 39 36 37 33 35 38 32 29
27 26 24 24 22 21 22 24 26 27 28 30 31 33 36 36 37 40 36 38 39 36 36 36 40 33 32 37 32 32 31 35 37 40 44 45 45 44 41 37 38 37 38
29 28 27 26 26 26 25 24 24 24 26 29 31 34 37 39 39 40 39 40 44 42 44 39 41 45 39 36 40 35 38 40 42 43 45 47 48 49 46 44 45 42 40
29 26 24 23 23 25 24 25 26 22 25 30 32 39 42 43 45 48 46 46 49 49 53 51 49 48 45 38 42 36 38 37 41 41 40 46 48 46 47 48 47 47 46
29 27 22 20 20 22 23 25 28 30 33 31 32 33 37 39 43 47 52 53 53 56 61 61 58 53 46 45 47 39 25 36 30 27 34 34 40 44 45 46 48 49 50
28 25 23 21 20 21 24 24 30 28 30 29 35 33 39 41 45 44 46 51 58 57 62 61 59 62 57 55 51 51 53 49 44 42 37 32 27 32 36 42 42 43 46
27 25 24 25 21 18 17 18 21 21 23 27 31 37 41 45 44 42 45 49 53 54 59 60 61 66 66 61 58 54 58 49 50 52 52 48 41 34 29 29 29 36 41
27 25 23 23 19 15 14 16 21 25 32 35 40 48 41 40 42 44 48 46 46 49 52 53 60 65 67 73 70 66 62 57 49 47 51 50 53 50 44 39 38 39 38
Wind_Direction_850mb
143 131 128 126 139 133 133 131 132 133 130 129 130 130 130 128 125 114 110 109 106 104 111 109 102 106 110 107 104 102 95 96 100 101 105 104 103 104 101 85 85 103 101
139 134 131 134 146 141 139 137 134 134 130 130 132 130 131 131 124 114 107 107 105 105 108 108 108 114 105 103 102 101 104 101 101 99 101 97 101 107 110 118 129 99 97
140 140 141 141 144 148 144 139 134 135 132 127 130 132 132 131 128 118 111 109 107 109 117 108 101 108 106 104 104 104 106 99 95 93 88 95 106 103 112 112 102 100 107
135 143 152 146 143 145 148 142 138 142 135 129 130 132 132 125 114 113 109 106 102 101 99 103 107 111 111 108 105 105 108 108 94 84 89 102 104 101 102 105 100 91 98
132 143 156 146 147 146 143 143 142 141 140 137 134 133 132 126 121 116 108 99 95 91 95 96 109 117 114 108 102 104 109 105 94 81 108 110 113 109 110 110 91 88 97
136 139 145 145 145 151 147 149 147 146 144 139 135 130 129 121 119 109 98 92 93 85 85 104 110 115 110 99 96 99 105 104 79 92 90 100 126 110 104 101 109 104 99
129 136 144 149 150 153 153 152 154 155 154 141 133 129 125 115 102 92 79 74 89 83 84 109 119 118 108 97 88 90 92 101 99 92 103 110 129 107 105 105 107 106 99
129 132 142 151 157 159 160 157 160 162 158 151 141 135 128 118 104 86 82 85 88 82 88 104 127 130 115 96 95 94 76 84 68 109 101 87 109 108 102 92 92 110 115
135 135 135 145 153 161 163 162 161 168 172 169 158 148 140 128 106 68 72 80 79 74 79 112 140 146 127 113 99 107 76 71 100 118 88 57 31 97 101 90 90 85 128
134 140 144 145 149 152 158 168 169 171 179 182 180 170 158 141 102 51 57 46 55 42 40 67 211 216 212 226 187 133 33 51 81 92 64 249 348 20 39 68 47 31 314
143 142 142 146 147 148 149 166 174 180 181 186 186 186 175 132 16 22 296 202 352 343 346 298 263 247 239 256 256 283 85 321 219 207 65 305 351 348 344 325 330 312 310
153 154 156 150 154 149 153 161 162 178 178 178 188 210 180 221 207 194 253 258 309 302 333 322 283 276 267 260 278 283 312 262 257 262 254 304 329 324 325 309 296 291 291
159 159 164 164 161 160 172 162 169 183 191 199 202 211 219 231 245 249 251 313 299 313 296 317 310 300 270 264 248 240 248 258 252 276 281 298 308 305 304 306 296 285 281
164 168 169 171 172 169 180 177 187 186 197 204 217 231 224 239 251 238 246 252 287 282 276 279 277 279 253 272 255 249 252 249 256 265 288 299 285 285 289 302 309 304 292
175 177 178 182 186 185 184 195 194 200 211 220 221 233 225 233 241 244 245 248 250 273 260 273 270 271 273 268 263 253 251 251 261 273 288 298 270 271 283 305 309 297 302
185 189 191 193 197 197 200 201 207 215 224 222 230 235 244 234 246 244 254 255 251 254 257 257 267 262 266 261 261 254 251 252 257 264 277 281 279 261 269 291 307 287 284
193 193 198 205 206 208 209 219 221 228 231 235 240 243 242 244 249 244 253 257 262 243 254 262 274 280 268 266 258 249 252 256 253 260 264 261 278 275 261 272 290 295 289
193 198 200 209 218 224 225 223 227 237 237 243 245 248 255 249 251 252 256 256 257 262 247 261 250 259 267 266 258 252 252 253 252 252 256 257 254 256 272 263 271 278 280
201 205 211 227 232 233 232 225 234 239 244 242 246 247 251 250 249 252 255 260 260 254 258 250 250 246 245 259 263 259 252 252 253 254 255 253 251 251 254 267 273 262 266
208 220 232 243 242 240 225 233 234 242 248 250 250 250 249 252 254 261 258 256 258 258 254 255 248 254 255 257 255 260 258 255 256 254 253 252 254 254 253 252 257 267 260
214 223 236 242 239 235 227 229 239 243 253 258 257 263 266 264 256 256 259 254 253 247 252 248 255 259 257 254 255 261 262 261 260 257 255 255 253 251 253 250 251 254 258
218 227 241 246 246 253 238 245 243 254 263 262 262 271 277 275 274 265 259 258 256 257 258 259 255 256 256 248 248 254 262 267 260 260 259 253 252 251 250 252 251 250 250
218 226 232 244 247 248 240 252 262 272 276 276 276 273 278 273 278 274 268 271 271 266 262 260 259 254 251 247 248 242 261 257 267 259 256 259 250 249 251 250 248 251 252
215 216 222 228 240 253 260 256 257 260 269 274 274 278 278 276 284 285 285 280 277 271 266 264 260 254 253 250 251 247 249 247 259 266 264 255 251 248 246 243 245 248 249
204 209 214 226 246 247 256 256 261 272 284 289 293 293 303 300 291 282 279 280 281 280 276 272 265 263 257 251 249 248 245 248 250 249 258 254 251 255 255 257 247 245 249
191 198 205 229 222 237 253 265 273 284 296 299 298 297 299 294 292 290 287 281 279 275 275 273 272 272 267 263 251 246 244 244 243 246 252 255 256 254 252 253 252 254 248